www.pogodaiklimat.ru

Погода и климат >> Архив погоды >> Малайзия >> Мири


ПОГОДА в Мири

  • Прогноз погоды в Мири
  • Монитор погоды в Мири

АРХИВ ПОГОДЫ в Мири

Время (UTC), дата Ветер
(напр.,м/с)
 
Видим.   Явления Облачность Т
(С)
Тd
(С)
f
(%)
Тe
(С)
Тes
(С)
Комфортность P
(гПа)
Po
(гПа)
Тmin
(С)
Tmax
(С)
R
(мм)
R24
(мм)
S
(см)
12 14.03 СЗ 2 15 км 9/3 480 м
[Sc Ac trans Ci fib]
+25.0 +23.8 93 +34 +34 очень
душно
1012.4 1010.4 +32.1
15 14.03 В 1 15 км 9/3 480 м
[Sc Ac trans Ci fib]
+24.8 +24.0 95 +34 +34 очень
душно
1013.4 1011.4
18 14.03 Ю 1 15 км 9/3 480 м
[Sc Ac trans Ci fib]
+23.4 +23.0 98 +33 +33 очень
душно
1011.7 1009.7
21 14.03 Ю 1 15 км 9/3 480 м
[Sc Ac trans Ci fib]
+23.6 +23.2 98 +32 +32 очень
душно
1010.8 1008.8
00 15.03 ЮВ 2 25 км 9/4 50 м
[Cu hum Ac trans Ci fib]
+26.0 +24.7 93 +37 +38 очень
душно
1013.1 1011.2 +24.0
03 15.03 С 3 15 км мгла 9/4 480 м
[Cu hum Ac trans Ci fib]
+31.4 +24.7 68 +45 +50 опасность
перегрева
1012.8 1010.9
06 15.03 СВ 5 15 км мгла 9/4 480 м
[Cu hum Ac lent Ci fib]
+33.7 +23.9 57 +46 +49 опасность
перегрева
1010.4 1008.5
09 15.03 СВ 6 15 км мгла 6/1 480 м
[Cu hum Ac lent Ci fib]
+30.9 +22.3 60 +40 +41 очень
душно
1008.8 1006.9
12 15.03 СВ 2 15 км 8/1 480 м
[Sc Ac As Ci fib]
+25.7 +22.7 84 +34 +34 очень
душно
1011.2 1009.2 +34.0
15 15.03 В 2 15 км 9/3 480 м
[Sc Ac As Ci fib]
+23.7 +22.6 94 +31 +31 очень
душно
1013.3 1011.3
18 15.03 штиль 0 15 км 9/4 480 м
[Sc Ac As Ci fib]
+22.9 +22.4 97 +31 +31 очень
душно
1011.6 1009.6
21 15.03 В 1 15 км дымка 9/4 60 м
[Sc Ac As Ci fib]
+22.7 +22.2 97 +31 +31 очень
душно
1011.1 1009.1
00 16.03 ЮВ 2 10 км мгла 8/1 50 м
[Cu hum Ac lent Ci fib]
+25.0 +23.9 94 +34 +36 очень
душно
1013.5 1011.5 +21.7
03 16.03 СВ 5 15 км мгла 8/4 480 м
[Cu hum Ac lent Ci fib]
+31.2 +22.9 61 +41 +45 опасность
перегрева
1013.3 1011.3
06 16.03 С 4 18 км мгла 8/4 480 м
[Cu hum Ac trans Ci fib]
+30.7 +23.7 66 +42 +47 опасность
перегрева
1010.4 1008.5
09 16.03 СЗ 5 30 км 9/3 480 м
[Cu hum Ac trans Ci fib]
+30.0 +24.1 71 +42 +42 опасность
перегрева
1009.7 1007.8
12 16.03 С 2 15 км 9/1 480 м
[Sc Ac lent Ci fib]
+26.5 +23.6 84 +36 +36 очень
душно
1011.9 1009.9 +32.4
15 16.03 В 2 15 км 9/1 480 м
[Sc Ac lent Ci fib]
+23.7 +22.8 95 +31 +31 очень
душно
1013.6 1011.6
18 16.03 Ю 1 15 км 9/3 480 м
[Sc Ac trans Ci fib]
+22.7 +22.2 97 +31 +31 очень
душно
1012.7 1010.7
21 16.03 штиль 0 8000 м дымка 9/5 90 м
[St Ac trans Ci fib]
+22.8 +22.4 98 +31 +31 очень
душно
1011.6 1009.6
00 17.03 ЮВ 2 15 км мгла 9/1 50 м
[Cu hum Ac trans Ci fib]
+25.2 +24.2 94 +35 +37 очень
душно
1013.2 1011.2 +22.5
03 17.03 СВ 3 18 км мгла 8/4 480 м
[Cu hum Ac trans Ci fib]
+30.7 +24.9 71 +44 +50 опасность
перегрева
1013.0 1011.1
06 17.03 С 4 18 км мгла 9/4 480 м
[Cu hum Ac trans Ci fib]
+31.9 +25.4 69 +46 +51 опасность
перегрева
1010.0 1008.1
09 17.03 С 4 18 км мгла 9/3 480 м
[Cu hum Ac trans Ci fib]
+30.9 +23.8 66 +42 +43 опасность
перегрева
1009.2 1007.3
12 17.03 В 2 15 км 9/1 480 м
[Sc Ac trans Ci fib]
+25.7 +23.4 87 +35 +35 очень
душно
1011.2 1009.2 +32.9
15 17.03 В 1 15 км 9/1 480 м
[Sc Ac trans Ci fib]
+23.8 +22.7 94 +31 +31 очень
душно
1013.1 1011.1
18 17.03 штиль 0 15 км 9/1 480 м
[Sc Ac trans Ci fib]
+23.2 +22.8 98 +32 +32 очень
душно
1011.5 1009.5
21 17.03 Ю 1 8000 м дымка 9/3 30 м
[St Ac trans Ci fib]
+22.4 +22.1 98 +30 +30 очень
душно
1011.0 1009.0
00 18.03 ЮВ 2 10 км мгла 9/1 50 м
[Cu hum Ac trans Ci fib]
+25.7 +24.4 93 +36 +38 очень
душно
1012.1 1010.2 +22.3
03 18.03 СЗ 2 10 км мгла 9/4 480 м
[Cu hum Ac trans Ci fib]
+29.7 +24.9 75 +42 +49 опасность
перегрева
1012.2 1010.3
06 18.03 СЗ 5 12 км мгла 9/4 480 м
[Cu hum Ac trans Ci fib]
+30.5 +24.8 72 +44 +47 опасность
перегрева
1009.4 1007.5
09 18.03 С 5 15 км мгла 9/4 480 м
[Cu hum Ac trans Ci fib]
+29.3 +24.1 74 +41 +41 опасность
перегрева
1008.1 1006.2
12 18.03 СВ 1 15 км 9/4 480 м
[Sc Ac trans Ci fib]
+26.4 +24.0 87 +37 +37 очень
душно
1009.8 1007.9 +30.8
15 18.03 В 1 15 км 9/3 480 м
[Sc Ac trans Ci fib]
+25.0 +24.1 95 +34 +34 очень
душно
1011.7 1009.7
18 18.03 штиль 0 15 км 9/3 480 м
[Sc Ac trans Ci fib]
+23.3 +23.0 98 +33 +33 очень
душно
1009.9 1007.9
21 18.03 В 1 15 км 9/3 480 м
[Sc Ac trans Ci fib]
+23.0 +22.7 98 +32 +32 очень
душно
1009.8 1007.8
00 19.03 ЮВ 2 10 км мгла 9/4 420 м
[Cu hum Ac trans Ci fib]
+26.2 +24.9 93 +37 +39 очень
душно
1012.1 1010.2 +23.0
03 19.03 З 3 12 км мгла 9/4 420 м
[Cu hum Ac trans Ci fib]
+30.0 +25.4 76 +44 +50 опасность
перегрева
1011.8 1009.9
06 19.03 СЗ 5 15 км осадки на расстоянии 8/4 480 м
[Cu hum Ac trans Ci fib]
+31.3 +26.3 75 +47 +52 опасность
перегрева
1008.8 1006.9
09 19.03 С 4 18 км мгла 9/3 480 м
[Cu hum Ac trans Ci fib]
+29.6 +25.5 79 +44 +44 опасность
перегрева
1007.7 1005.8
12 19.03 СВ 3 15 км 9/3 480 м
[Sc Ac As Ci fib]
+27.3 +24.6 85 +39 +39 очень
душно
1009.4 1007.5 +31.7
15 19.03 В 2 15 км 9/3 480 м
[Sc Ac As]
+26.5 +24.8 90 +38 +38 очень
душно
1011.0 1009.1
18 19.03 штиль 0 15 км 9/3 90 м
[St Ac cast Ci sp]
+24.3 +23.6 96 +33 +33 очень
душно
1009.3 1007.3
21 19.03 штиль 0 8000 м дымка 9/4 30 м
[Sc Ac As Ci fib]
+24.0 +23.6 98 +33 +33 очень
душно
1009.5 1007.5
00 20.03 ЮВ 1 8000 м мгла 9/3 <50 м
[Cu hum Ac trans Ci fib]
+26.8 +25.7 94 +40 +41 очень
душно
1011.3 1009.4 +23.5
03 20.03 СЗ 3 15 км мгла 8/4 480 м
[Cu hum Ac trans Ci fib]
+31.0 +25.0 70 +44 +51 опасность
перегрева
1011.4 1009.5
06 20.03 СЗ 5 18 км мгла 6/4 480 м
[Cu hum Ac lent Ci fib]
+31.2 +25.6 72 +46 +51 опасность
перегрева
1008.7 1006.8
09 20.03 С 4 15 км мгла 8/1 480 м
[Cu hum Ac lent Ci fib]
+30.5 +25.5 75 +45 +46 опасность
перегрева
1007.5 1005.6
12 20.03 СВ 4 15 км 9/1 480 м
[Sc Ac trans Ci fib]
+27.3 +25.1 88 +39 +39 очень
душно
1009.0 1007.1 +31.6
15 20.03 СВ 2 15 км 9/1 480 м
[Sc Ac As]
+25.9 +25.0 95 +37 +37 очень
душно
1010.5 1008.6
18 20.03 штиль 0 15 км 9/1 480 м
[Sc Ac trans Ci fib]
+24.5 +24.1 98 +34 +34 очень
душно
1008.8 1006.9
21 20.03 штиль 0 15 км 9/1 480 м
[Sc Ac As]
+24.6 +24.2 98 +34 +34 очень
душно
1008.7 1006.8
00 21.03 В 1 12 км мгла 9/1 50 м
[Cu hum Ac trans Ci fib]
+27.4 +25.8 91 +41 +43 опасность
перегрева
1010.4 1008.5 +24.3
03 21.03 З 3 18 км мгла 9/4 480 м
[Cu hum Ac trans Ci fib]
+30.8 +26.1 76 +46 +52 опасность
перегрева
1011.2 1009.3
06 21.03 СЗ 4 30 км 9/5 450 м
[Cb cap Ac trans Ci fib]
+30.9 +26.0 75 +46 +50 опасность
перегрева
1008.5 1006.6
09 21.03 СЗ 4 30 км 9/4 450 м
[Cb cap Ac trans Ci fib]
+30.3 +25.6 76 +45 +45 опасность
перегрева
1007.2 1005.3

 

Местоположение метеостанции Мири (Малайзия): широта 4.33 долгота 113.98 высота над уровнем моря 18 м.

В архиве по умолчанию представлена погода в Мири за последнюю неделю. Архивные данные за месяц целиком и за предыдущие месяцы, начиная с января 2011 года, Вы можете получить, выбрав интересующий диапазон дат из раскрывающегося списка и нажав кнопку "Ввод!".


*Определитесь, кто Вы:
робот инопланетянин человек

Внимание! Время в таблицах - всемирное. Для получения местного времени необходимо прибавить поправку, которая равна 8 ч.

Смотрите также архив погоды в соседних городах и на ближайших метеорологических станциях:

Погода в Бруней аэропорту (Бруней) (125 км)
Погода в Бинталу (Малайзия) (164 км)
Погода в Лабуане (Малайзия) (177 км)
Погода в Лонгбаване (Индонезия) (200 км)
Погода в Кота-Кинабалу (Малайзия) (290 км)
Погода в Сибу (Малайзия) (326 км)
Погода на Путусиббау (Индонезия) (405 км)
Погода в Танджунгселоре (Индонезия) (407 км)
Погода в Таракане (Индонезия) (413 км)
Погода в Тавау (Малайзия) (433 км)

Пояснения к столбцам:

Ветер - указаны скорость ветра в м/с - средняя за 10 мин, порывы в срок и между сроками (в фигурных скобках) и направление, откуда дует ветер: С - северный, СВ - северо-восточный, В - восточный, ЮВ - юго-восточный, Ю - южный, ЮЗ - юго-западный, З - западный, СЗ - северо-западный.
Видимость - горизонтальная дальность видимости в метрах или километрах. При видимости от 1 до 10 км при отсутствии осадков обычно наблюдается дымка, при ухудшении видимости до 1 км и менее - туман. В сухую погоду видимость может ухудшаться дымом, пылью или мглою.
Явления - указаны атмосферные явления, наблюдавшиеся в срок или в последний час перед сроком; фигурными скобками обозначены явления, наблюдавшиеся между сроками (за 1-3 часа до срока); квадратными скобками обозначены град или гололедные отложения с указанием их диаметра в мм.
Облачность - указаны через наклонную черту общая и нижняя облачность в баллах и высота нижней границы облаков в метрах; квадратными скобками обозначены формы облаков: Ci - перистые, Cs - перисто-слоистые, Cc - перисто-кучевые, Ac - высококучевые, As - высокослоистые, Sc - слоисто-кучевые, Ns - слоисто-дождевые, Cu - кучевые, Cb - кучево-дождевые. Подробнее классификацию облаков см. в Атласе облаков (PDF).
T - Температура воздуха - температура, измеренная на высоте 2 м над землей.
Td - Температура точки росы - температура, при понижении до которой содержащийся в воздухе водяной пар достигнет насыщения.
f - Относительная влажность воздуха - влажноcть воздуха, измеренная на высоте 2 м над землей.
Te - Эффективная температура - температура, которую ощущает одетый по сезону человек в тени. Характеристика душности погоды. При расчете учитывается влияние влажности воздуха и скорости ветра на теплоощущения человека.
Tes - Эффективная температура на солнце - температура, которую ощущает человек, с поправкой на солнечный нагрев. Характеристика знойности погоды. Зависит от высоты солнца над горизонтом, облачности и скорости ветра. Ночью, в пасмурную погоду, а также при ветре 12 м/с и более поправка равна нулю.
P - Атмосферное давление - приведенное к уровню моря атмосферное давление.
Po - Атмосферное давление - измеренное на уровне метеостанции атмосферное давление.
Tmin - Минимальная температура - минимум температуры воздуха на высоте 2 м над землей.
Tmax - Максимальная температура - максимум температуры воздуха на высоте 2 м над землей.
R - Количество осадков - Количество выпавших осадков за период времени, мм. При наведении курсора мыши на число - период времени, за который выпало указанное количество осадков.
R24 - Количество осадков - Количество выпавших осадков за 24 часа, мм.
S - Снежный покров - Высота снежного покрова, см. При наведении курсора мыши на число - состояние снежного покрова и степень покрытия местности в баллах.